Dewpoint
68 67 68 68 68 68 67 68 67 64 62 63 63 63 62 62 62 61 60 61 61 61 61 60 60 60 59 58 60 59 59 58 57 57 57 57 57 57 57 58 59 57 62 64 64 64 63 62 60 59 60 60 59 59 59 57 59 58 58 59 59 58 58 59 59 60 60 61 62 62 63 63 62 62 62 60 57 58 58 58 58 58 60 61 58
67 68 68 68 68 67 68 68 65 63 63 63 62 62 61 60 60 60 60 59 59 60 60 59 59 58 58 59 60 63 65 62 60 60 61 59 59 59 59 58 62 62 63 65 64 64 63 62 61 60 59 59 58 58 58 57 57 58 56 57 59 59 59 59 59 60 61 61 62 62 63 62 62 64 60 61 58 59 58 58 57 59 59 58 57
68 68 68 68 67 68 68 66 63 63 63 63 62 61 60 60 59 59 58 58 58 59 59 58 58 59 59 59 60 66 65 66 64 60 61 60 60 59 60 64 64 65 66 65 65 64 63 62 61 61 59 59 59 58 57 58 58 57 55 58 58 58 58 59 60 60 61 61 62 63 62 62 62 61 61 61 60 59 58 58 58 59 60 58 57
67 67 67 68 68 68 67 65 63 64 63 62 61 61 60 59 59 58 57 57 57 58 58 59 58 58 58 57 61 65 65 66 64 61 60 61 61 63 64 64 64 64 66 66 65 64 63 62 61 61 60 58 57 57 57 58 57 55 58 57 57 57 58 59 59 60 61 62 62 63 62 55 56 61 61 60 60 60 59 59 59 59 60 59 59
67 68 67 67 67 67 66 63 63 64 63 62 60 60 60 59 58 58 57 59 59 59 59 59 58 57 58 58 62 65 65 66 65 62 61 63 65 64 64 64 64 64 64 64 64 63 63 62 60 60 59 58 57 57 57 58 55 57 57 57 58 58 58 59 59 61 61 62 62 61 56 54 52 58 60 61 61 61 60 60 60 60 60 60 59
67 67 67 66 66 66 64 63 63 63 62 61 60 60 59 59 59 58 58 61 60 60 60 58 57 59 59 60 63 65 65 66 66 66 65 65 64 64 64 63 63 63 63 63 62 61 61 61 61 60 58 58 58 58 58 58 56 57 58 57 57 58 59 59 60 60 61 62 60 58 54 54 54 60 61 61 62 61 61 60 60 60 60 60 60
67 67 65 63 64 64 63 63 63 63 61 61 59 58 58 59 59 58 59 58 60 60 60 60 59 60 58 59 62 64 63 63 64 64 64 64 64 63 62 62 62 62 61 61 61 60 60 60 60 59 56 59 56 57 57 57 57 58 58 58 58 59 59 59 59 60 61 59 54 54 54 53 53 58 60 61 61 60 59 59 59 59 59 59 59
67 67 63 63 63 64 64 63 63 62 62 60 58 58 58 60 60 59 58 58 59 58 60 61 60 61 59 60 60 63 62 62 63 63 63 62 62 62 61 60 60 60 60 60 60 59 59 59 59 57 57 58 57 58 58 58 58 58 57 57 58 58 58 58 59 59 61 54 53 53 52 53 54 60 60 60 60 60 59 59 59 59 59 58 57
67 65 63 63 64 64 63 63 62 60 59 57 57 58 61 60 59 59 58 58 58 58 61 61 61 60 60 57 59 62 62 61 60 60 60 59 59 61 59 59 59 59 59 59 59 59 59 58 57 57 58 56 57 58 58 57 58 58 57 57 57 57 58 58 59 60 57 54 53 51 53 55 58 58 59 60 60 59 59 59 61 59 58 58 60
67 62 63 64 64 63 63 62 60 59 58 57 58 58 60 60 59 59 58 58 58 57 59 60 59 60 60 57 61 61 61 60 58 59 59 59 59 59 58 59 58 59 59 58 58 57 58 58 57 57 58 57 58 59 58 58 58 58 58 58 57 58 58 58 59 59 55 54 52 49 59 60 57 58 59 60 58 58 59 58 59 58 59 59 59
65 62 63 63 64 63 62 61 60 58 58 58 57 57 59 60 59 59 58 59 59 58 58 60 59 59 59 58 59 58 58 57 56 58 57 59 58 59 57 58 57 58 58 58 58 59 58 59 58 58 59 58 59 59 59 58 59 59 58 58 58 59 58 59 60 56 55 52 50 53 60 60 58 58 59 58 58 58 58 56 56 56 57 58 59
64 62 62 63 65 63 62 60 58 57 57 57 57 59 59 60 59 58 58 58 59 59 59 59 58 59 59 58 56 56 56 56 56 57 57 58 58 58 58 58 57 58 58 58 58 58 58 58 58 59 59 59 59 59 59 59 59 60 59 59 59 59 59 59 58 56 54 51 51 57 55 56 57 58 57 58 59 58 58 57 57 56 56 58 59
62 61 61 64 63 62 61 59 58 59 58 58 59 59 59 59 59 58 58 59 59 59 58 57 58 58 57 56 56 57 56 56 57 57 56 57 58 57 58 58 58 57 58 57 57 57 57 57 58 58 58 58 58 59 59 60 60 60 60 60 60 60 60 60 57 56 55 52 54 56 56 56 57 58 57 58 59 58 58 58 58 57 56 57 58
61 61 62 62 62 62 61 60 59 58 57 57 59 59 58 59 58 57 57 58 58 58 58 57 57 56 56 55 56 57 56 56 56 56 56 56 57 57 56 57 57 55 55 55 55 56 56 57 57 57 57 57 58 59 59 59 60 60 61 61 61 61 61 61 60 57 56 54 58 55 56 60 58 58 57 58 59 59 59 58 58 57 57 57 59
61 62 61 61 62 61 61 59 60 60 59 59 59 59 58 58 57 56 57 57 58 57 56 56 55 55 55 55 55 56 55 56 57 56 56 55 57 58 56 56 56 55 55 55 55 56 56 57 57 58 58 58 58 59 59 59 60 60 60 60 61 62 62 59 57 56 55 56 55 57 56 57 61 57 58 58 59 59 59 58 58 58 57 57 58
62 62 62 60 61 61 61 61 60 60 59 60 60 59 58 57 56 56 56 57 57 57 57 55 55 55 55 55 55 55 55 55 56 57 56 56 55 57 56 56 56 56 56 55 56 57 57 58 58 59 59 59 59 60 60 60 60 60 61 61 61 61 62 62 58 57 56 54 54 57 56 57 60 58 58 59 59 59 58 58 58 58 57 57 59
63 63 60 59 60 59 60 64 62 61 61 61 60 59 58 58 56 56 56 57 57 57 56 56 56 56 56 55 55 55 55 56 56 57 55 56 56 55 56 56 57 58 58 58 58 58 59 59 59 59 60 60 61 61 60 61 61 61 60 61 61 61 62 62 60 58 57 57 58 55 55 56 61 58 58 59 58 58 58 58 58 57 57 58 59
64 62 59 59 59 59 60 61 60 62 62 62 61 59 59 59 57 56 57 57 57 58 58 57 57 57 57 57 57 56 57 57 56 57 56 57 57 57 56 56 57 58 59 59 59 59 59 59 60 61 61 61 62 62 62 62 62 62 62 62 62 62 61 62 60 59 58 60 56 56 57 62 61 57 58 58 58 58 58 58 58 57 57 58 58
61 61 59 59 58 58 58 59 62 59 62 61 60 61 60 59 58 58 57 57 58 58 58 59 58 58 58 59 59 57 57 56 55 57 58 58 59 58 58 58 58 59 59 60 61 61 60 60 60 61 62 63 63 63 63 63 63 63 64 64 63 63 63 63 60 58 58 56 55 54 57 63 59 58 58 57 58 58 58 58 57 56 57 58 57
55 59 59 59 58 58 58 59 60 59 61 60 60 59 63 60 59 58 58 58 59 59 58 59 59 59 59 59 60 63 59 58 57 58 59 60 59 59 60 60 60 59 60 60 61 62 63 63 62 62 63 63 64 64 64 64 64 64 64 65 65 64 61 59 59 57 56 55 57 54 60 62 59 59 58 57 57 57 57 58 57 56 57 57 57
56 51 52 53 57 57 58 58 59 59 60 60 58 58 60 61 61 59 59 59 59 60 59 60 59 60 59 65 62 60 58 59 59 56 61 61 58 59 59 59 60 61 61 62 62 62 62 63 63 63 64 64 65 65 65 64 63 63 63 65 65 63 61 59 58 58 58 56 57 57 63 61 59 60 57 57 57 57 58 57 57 57 57 57 57
53 49 50 52 53 56 56 58 59 59 59 59 59 59 60 63 59 61 61 61 61 59 60 60 61 60 66 58 59 61 58 56 55 62 60 60 60 60 56 56 59 61 61 62 62 62 61 61 62 63 62 62 62 63 62 62 61 61 61 62 62 62 61 59 58 57 58 56 56 57 61 61 60 59 56 58 57 57 58 58 58 57 57 56 57
51 52 51 54 52 55 56 58 58 59 59 58 59 59 59 60 58 59 60 62 63 61 60 62 55 56 58 55 58 55 55 57 58 60 62 59 57 57 57 58 58 58 58 59 60 59 60 60 59 59 58 58 60 60 58 54 51 57 61 62 60 61 60 59 58 57 57 55 55 60 60 61 61 59 58 58 58 56 57 58 58 56 56 56 58
50 50 50 56 54 56 56 56 56 58 58 57 59 58 59 59 58 58 59 59 59 62 58 56 55 54 54 54 54 56 54 53 58 57 59 55 53 60 57 60 59 62 57 63 63 60 58 56 56 59 55 53 52 53 53 50 50 50 52 54 57 59 58 58 58 57 56 55 56 61 60 61 61 59 59 59 57 58 57 57 57 55 56 57 58
51 51 58 54 54 55 55 56 58 57 57 56 60 57 58 57 57 58 59 59 57 57 56 55 54 54 53 54 54 55 54 51 52 51 51 53 50 52 51 53 56 56 58 55 55 49 53 49 49 52 49 49 48 48 48 49 49 48 48 49 49 52 53 54 55 55 54 52 53 60 61 60 61 60 60 59 59 58 58 59 54 55 57 57 58
54 52 52 52 54 56 55 56 57 57 59 58 55 57 62 57 56 56 57 58 57 56 56 55 54 54 53 54 54 53 52 50 51 51 51 51 51 51 52 52 51 52 55 51 50 50 50 49 49 50 49 48 47 48 48 51 47 47 48 49 49 49 48 50 52 52 51 50 52 59 59 59 61 61 60 60 59 59 57 55 55 56 57 57 57
55 52 51 51 52 53 56 57 55 56 57 56 55 57 56 54 54 55 52 54 55 54 54 55 54 54 54 56 51 52 51 49 50 51 49 51 52 51 52 51 51 50 52 50 49 50 50 49 49 49 48 47 47 48 47 48 48 48 49 49 48 46 45 46 47 48 49 51 53 57 59 61 63 62 61 60 60 54 54 55 56 57 57 57 58
53 51 51 54 58 54 55 56 57 56 55 57 55 55 57 57 55 61 54 59 55 52 54 55 55 55 57 57 55 52 50 48 50 50 50 51 52 52 51 51 51 51 51 50 50 50 49 49 49 48 47 48 48 47 48 48 47 48 48 46 46 45 46 47 48 48 48 47 49 55 62 61 62 61 60 53 57 57 58 58 58 58 58 58 58
50 50 52 54 54 56 57 59 60 58 55 53 54 56 56 56 58 53 53 62 53 51 54 57 54 54 54 56 57 52 53 49 50 51 51 50 51 51 51 52 50 50 50 50 51 50 49 50 49 48 48 48 48 47 49 47 47 47 48 46 46 46 47 46 46 47 47 48 48 53 60 58 56 56 58 58 58 58 58 58 58 59 59 59 59
49 51 54 55 56 55 55 57 56 56 55 55 55 57 57 54 55 54 54 61 52 55 57 55 53 53 52 55 58 54 53 50 51 52 50 51 50 51 53 52 50 50 50 49 51 51 50 50 49 48 48 48 48 48 49 47 47 46 47 46 46 46 48 46 46 46 47 47 49 51 57 58 58 57 57 58 58 57 57 58 59 59 59 59 59
51 53 55 54 57 54 57 60 60 63 57 57 58 56 58 54 56 53 55 56 53 58 59 54 53 53 54 55 57 57 53 53 53 52 52 51 51 52 52 51 50 50 51 51 51 52 51 50 50 49 48 48 48 49 48 47 46 45 47 45 45 47 46 46 46 47 47 47 47 49 53 55 57 57 57 57 57 57 58 58 59 59 59 59 58
48 54 55 55 55 53 57 58 57 58 59 58 60 55 56 56 55 52 53 52 58 55 55 53 58 54 55 54 55 54 57 52 53 51 53 52 51 52 52 52 51 52 53 52 51 51 51 51 51 50 49 50 49 48 48 47 46 45 45 45 46 46 46 46 46 47 48 48 48 49 49 54 58 57 57 56 57 56 56 57 58 58 59 59 58
49 53 55 55 53 54 56 56 57 57 54 55 57 56 57 54 54 53 53 57 56 54 55 54 54 54 54 54 54 56 57 53 51 53 56 52 52 52 51 53 52 53 53 53 52 52 52 52 51 51 49 51 48 47 48 46 45 44 44 45 46 46 46 47 47 47 48 48 48 48 47 51 53 57 57 57 57 56 56 56 57 58 58 58 58
49 54 54 53 55 57 58 56 55 54 56 57 60 55 57 57 59 55 59 56 54 53 55 53 56 55 55 54 53 56 55 54 52 52 53 52 52 52 52 52 53 54 53 54 52 52 52 52 51 51 52 50 47 47 47 45 45 44 44 46 46 47 47 47 47 47 48 47 48 47 47 48 51 53 55 57 57 57 57 56 57 58 58 58 58
55 54 53 53 58 58 57 55 57 52 58 56 52 55 57 55 53 53 52 55 55 54 54 55 53 52 52 52 54 56 54 55 55 53 53 52 52 51 52 52 53 54 52 53 53 53 52 52 52 50 49 49 47 48 47 45 45 44 45 47 45 48 47 47 46 45 46 47 47 47 47 48 52 53 54 52 57 57 57 57 57 58 57 57 58
53 54 54 54 56 57 58 54 57 54 50 56 56 56 57 55 54 60 54 55 57 55 56 53 51 52 52 52 54 56 55 54 55 54 52 52 52 51 52 53 53 53 53 53 54 52 52 52 51 51 49 46 47 45 47 45 46 45 45 46 46 51 47 47 46 44 46 46 47 48 48 48 52 53 56 53 53 55 57 57 57 57 57 58 58
54 54 54 54 56 57 58 51 54 52 53 56 55 56 54 53 54 55 56 55 54 54 54 52 52 51 53 53 54 56 54 54 54 54 52 53 53 52 53 53 54 52 53 53 53 53 52 51 51 52 49 47 46 46 46 46 46 45 45 44 46 49 47 47 46 46 47 46 46 47 47 48 52 55 51 52 53 53 56 57 57 57 57 57 58
54 54 55 54 55 56 53 50 50 57 54 54 54 55 55 55 56 55 58 56 54 54 54 54 52 52 53 53 54 56 56 54 54 54 52 53 53 52 52 53 54 53 53 53 53 53 52 50 50 50 50 48 47 46 46 46 45 44 45 45 46 47 46 47 46 50 46 45 46 47 47 48 49 51 50 51 53 53 53 55 57 57 57 58 58
54 54 55 54 53 51 55 55 55 57 55 54 55 56 56 54 54 55 55 54 53 54 54 53 53 53 53 54 54 56 57 54 54 54 52 55 53 53 52 52 53 53 52 53 52 53 53 51 50 50 48 49 48 47 47 48 46 45 45 46 46 45 46 50 43 44 46 45 47 49 48 47 48 50 49 50 52 53 53 53 52 53 53 57 58
54 55 56 54 51 50 53 56 56 56 56 53 54 55 54 55 54 53 52 54 54 56 53 53 53 52 54 55 54 53 55 55 54 54 52 54 52 52 52 53 53 52 51 52 51 51 51 51 50 51 48 48 49 48 48 47 46 46 47 47 45 45 44 46 42 44 47 45 46 48 47 48 48 49 49 49 50 53 53 52 55 53 53 55 57
54 53 55 54 51 49 53 54 56 56 56 53 53 53 52 53 53 54 53 54 54 53 54 53 51 52 55 54 55 54 54 54 56 54 52 57 53 51 51 52 53 53 52 52 52 52 53 52 52 50 50 47 47 48 48 47 45 44 44 45 44 44 48 45 42 44 45 45 47 46 48 48 48 48 48 50 50 52 53 53 53 53 53 53 54
54 52 55 56 54 52 51 52 55 56 55 55 54 55 54 55 54 54 54 53 54 55 53 53 51 53 54 54 54 53 52 51 54 54 55 55 53 51 52 53 52 52 53 54 53 56 51 50 49 47 49 48 46 48 48 46 44 44 43 43 43 44 47 45 42 44 45 45 47 47 48 48 48 48 49 49 49 52 53 53 53 53 53 53 53
54 52 53 56 56 55 51 53 55 56 55 56 55 55 57 58 56 56 55 54 55 55 52 53 54 52 52 54 53 53 51 50 52 55 54 55 52 51 52 52 52 54 51 52 51 51 50 50 49 47 47 48 50 51 48 47 44 45 44 43 41 40 43 43 44 44 45 45 47 46 48 48 48 48 49 48 48 52 53 53 52 52 52 53 53
54 52 52 53 57 57 54 55 54 55 56 56 59 56 57 57 57 57 56 54 52 60 56 54 54 54 53 52 53 55 54 52 52 53 53 54 53 52 52 52 50 51 50 51 51 50 51 49 49 51 47 45 47 47 51 49 46 43 40 41 41 39 38 38 40 42 45 44 46 46 47 47 47 47 48 47 48 52 53 53 52 52 52 52 52
53 52 53 52 58 56 56 56 55 56 55 58 57 56 58 55 54 54 56 53 50 53 51 50 53 55 56 54 52 54 54 53 52 52 55 53 53 52 52 51 50 50 52 52 50 50 51 49 49 50 47 45 46 47 48 50 48 46 43 41 39 39 37 38 40 41 44 44 45 46 48 46 46 48 47 47 49 52 52 52 52 51 51 52 51
53 52 54 53 57 56 56 57 56 57 55 55 56 55 56 53 51 50 49 51 49 50 49 49 51 53 53 54 55 55 55 53 52 51 51 54 53 53 52 51 51 51 53 52 51 52 51 50 49 49 48 48 46 46 46 49 50 50 46 43 41 39 38 40 39 38 44 46 46 46 45 46 46 46 47 46 48 52 52 51 51 51 51 51 51
53 53 55 54 55 56 57 57 57 56 56 56 56 56 53 53 52 52 51 51 50 52 53 54 53 54 54 53 52 53 54 53 54 53 52 54 54 53 52 52 52 53 57 51 50 50 51 51 53 50 49 52 47 45 45 46 47 48 48 46 48 47 42 40 38 41 41 42 44 44 44 46 46 46 46 45 49 51 51 51 51 51 51 51 50
55 55 55 56 55 55 57 56 57 57 56 56 54 55 52 53 52 53 54 53 53 53 54 55 55 55 53 52 51 51 54 55 55 55 53 53 54 52 51 52 52 53 54 50 50 51 51 50 52 51 50 50 49 46 45 46 43 44 50 47 47 49 44 42 42 41 41 41 42 44 45 45 45 45 46 45 48 51 50 51 51 51 51 52 49
58 57 55 55 56 55 56 56 57 57 55 55 54 54 55 54 55 54 54 57 56 56 56 58 58 56 52 52 53 53 54 54 56 53 52 53 56 52 53 53 52 53 55 52 52 51 49 47 48 49 48 50 49 48 45 44 45 44 44 44 45 43 43 42 44 44 44 42 41 42 43 44 45 45 45 45 46 50 51 50 51 52 52 52 49
59 58 56 56 56 56 57 56 57 56 55 55 56 54 54 56 55 55 55 55 55 55 53 53 55 54 52 52 53 53 53 53 54 54 53 53 52 54 53 53 53 54 55 51 51 49 49 48 48 49 50 49 49 50 46 46 47 46 45 44 43 42 42 42 42 42 43 42 41 43 43 43 43 44 45 44 45 48 51 51 50 51 51 51 50
59 58 57 56 56 56 56 55 56 56 55 55 55 54 53 53 53 54 55 55 55 55 54 55 54 53 54 53 53 53 53 52 54 55 54 54 53 54 53 52 54 56 55 52 50 49 48 48 49 50 50 50 49 50 51 49 49 48 45 45 43 41 40 40 40 42 43 42 42 43 43 44 43 43 44 45 47 47 50 51 50 50 51 51 50